�����͌���@�Y���u�C�̈ړ���,,,,,,,,,,,,
�@,Time,Time int.,,Lat.,,Long.,,Distance,,Direction,Speed,
Date(yy/mm/dd),(hh:mm),(hour),(min),(deg),(min),(deg),(min),(miles),(meter),(deg),(m/s),(knots)
2004/6/23,9:30,,,36,47.688 ,137,4.194 ,,,,,
2004/6/23,9:35,0,5,36,47.676 ,137,4.260 ,0.07 ,124.24 ,100.3 ,0.41 ,0.80 
2004/6/23,9:40,0,5,36,47.664 ,137,4.314 ,0.06 ,102.45 ,102.5 ,0.34 ,0.66 
2004/6/23,9:45,0,5,36,47.658 ,137,4.374 ,0.06 ,111.67 ,95.7 ,0.37 ,0.72 
2004/6/23,9:50,0,5,36,47.658 ,137,4.416 ,0.04 ,77.78 ,90.0 ,0.26 ,0.50 

,,,,,,,,,,,,
�A,Time,Time int.,,Lat.,,Long.,,Distance,,Direction,Speed,
Date(yy/mm/dd),(hh:mm),(hour),(min),(deg),(min),(deg),(min),(miles),(meter),(deg),(m/s),(knots)
2004/6/23,10:30,,,36,47.682 ,137,4.200 ,,,,,
2004/6/23,10:35,0,5,36,47.688 ,137,4.272 ,0.07 ,133.81 ,85.2 ,0.45 ,0.87 
2004/6/23,10:40,0,5,36,47.676 ,137,4.338 ,0.07 ,124.24 ,100.3 ,0.41 ,0.80 
2004/6/23,10:45,0,5,36,47.676 ,137,4.380 ,0.04 ,77.78 ,90.0 ,0.26 ,0.50 
2004/6/23,10:50,0,5,36,47.676 ,137,4.428 ,0.05 ,88.90 ,90.0 ,0.30 ,0.58 
2004/6/23,10:55,0,5,36,47.670 ,137,4.476 ,0.05 ,89.59 ,97.1 ,0.30 ,0.58 
2004/6/23,11:00,0,5,36,47.676 ,137,4.530 ,0.05 ,100.62 ,83.7 ,0.34 ,0.65 
2004/6/23,11:05,0,5,36,47.682 ,137,4.578 ,0.05 ,89.59 ,82.9 ,0.30 ,0.58 
2004/6/23,11:10,0,5,36,47.694 ,137,4.638 ,0.06 ,113.32 ,78.7 ,0.38 ,0.73 
2004/6/23,11:15,0,5,36,47.682 ,137,4.674 ,0.04 ,70.28 ,108.4 ,0.23 ,0.46 
2004/6/23,11:20,0,5,36,47.682 ,137,4.710 ,0.04 ,66.67 ,90.0 ,0.22 ,0.43 
2004/6/23,11:25,0,5,36,47.682 ,137,4.752 ,0.04 ,77.78 ,90.0 ,0.26 ,0.50 
2004/6/23,11:30,0,5,36,47.676 ,137,4.794 ,0.04 ,78.57 ,98.1 ,0.26 ,0.51 
2004/6/23,11:35,0,5,36,47.676 ,137,4.836 ,0.04 ,77.78 ,90.0 ,0.26 ,0.50 
2004/6/23,11:40,0,5,36,47.670 ,137,4.872 ,0.04 ,67.59 ,99.5 ,0.23 ,0.44 
2004/6/23,11:45,0,5,36,47.676 ,137,4.896 ,0.02 ,45.82 ,76.0 ,0.15 ,0.30 

,,,,,,,,,,,,
�B,Time,Time int.,,Lat.,,Long.,,Distance,,Direction,Speed,
Date(yy/mm/dd),(hh:mm),(hour),(min),(deg),(min),(deg),(min),(miles),(meter),(deg),(m/s),(knots)
2004/6/23,12:20,,,36,47.658 ,137,4.368 ,,,,,
2004/6/23,12:30,0,10,36,47.634 ,137,4.476 ,0.11 ,204.90 ,102.5 ,0.34 ,0.66 
2004/6/23,12:35,0,5,36,47.640 ,137,4.530 ,0.05 ,100.62 ,83.7 ,0.34 ,0.65 
2004/6/23,12:40,0,5,36,47.628 ,137,4.584 ,0.06 ,102.45 ,102.5 ,0.34 ,0.66 
2004/6/23,12:45,0,5,36,47.640 ,137,4.626 ,0.04 ,80.90 ,74.1 ,0.27 ,0.52 
2004/6/23,12:50,0,5,36,47.634 ,137,4.692 ,0.07 ,122.74 ,95.2 ,0.41 ,0.80 
2004/6/23,13:00,0,10,36,47.640 ,137,4.800 ,0.11 ,200.32 ,86.8 ,0.33 ,0.65 
2004/6/23,13:05,0,5,36,47.652 ,137,4.848 ,0.05 ,91.63 ,76.0 ,0.31 ,0.59 
2004/6/23,13:10,0,5,36,47.676 ,137,4.890 ,0.05 ,89.59 ,60.3 ,0.30 ,0.58 
2004/6/23,13:15,0,5,36,47.664 ,137,4.920 ,0.03 ,59.84 ,111.8 ,0.20 ,0.39 
2004/6/23,13:20,0,5,36,47.682 ,137,4.944 ,0.03 ,55.56 ,53.1 ,0.19 ,0.36 
2004/6/23,13:25,0,5,36,47.688 ,137,4.974 ,0.03 ,56.66 ,78.7 ,0.19 ,0.37 
2004/6/23,13:30,0,5,36,47.706 ,137,4.998 ,0.03 ,55.56 ,53.1 ,0.19 ,0.36 
2004/6/23,13:40,0,10,36,47.730 ,137,5.022 ,0.03 ,62.86 ,45.0 ,0.10 ,0.20 
2004/6/23,13:45,0,5,36,47.736 ,137,5.028 ,0.01 ,15.71 ,45.0 ,0.05 ,0.10 
2004/6/23,13:50,0,5,36,47.742 ,137,5.052 ,0.02 ,45.82 ,76.0 ,0.15 ,0.30 
2004/6/23,14:00,0,10,36,47.766 ,137,5.082 ,0.04 ,71.15 ,51.3 ,0.12 ,0.23 
2004/6/23,14:05,0,5,36,47.772 ,137,5.088 ,0.01 ,15.71 ,45.0 ,0.05 ,0.10 
2004/6/23,14:10,0,5,36,47.784 ,137,5.094 ,0.01 ,24.85 ,26.6 ,0.08 ,0.16 
2004/6/23,14:15,0,5,36,47.790 ,137,5.118 ,0.02 ,45.82 ,76.0 ,0.15 ,0.30 
2004/6/23,14:20,0,5,36,47.796 ,137,5.136 ,0.02 ,35.14 ,71.6 ,0.12 ,0.23 
2004/6/23,14:25,0,5,36,47.802 ,137,5.154 ,0.02 ,35.14 ,71.6 ,0.12 ,0.23 
2004/6/23,14:30,0,5,36,47.808 ,137,5.160 ,0.01 ,15.71 ,45.0 ,0.05 ,0.10 
2004/6/23,14:35,0,5,36,47.820 ,137,5.190 ,0.03 ,59.84 ,68.2 ,0.20 ,0.39 
2004/6/23,14:40,0,5,36,47.826 ,137,5.202 ,0.01 ,24.85 ,63.4 ,0.08 ,0.16 
2004/6/23,14:45,0,5,36,47.838 ,137,5.238 ,0.04 ,70.28 ,71.6 ,0.23 ,0.46 
2004/6/23,14:55,0,10,36,47.856 ,137,5.304 ,0.07 ,126.70 ,74.7 ,0.21 ,0.41 

,,,,,,,,,,,,
�C,Time,Time int.,,Lat.,,Long.,,Distance,,Direction,Speed,
Date(yy/mm/dd),(hh:mm),(hour),(min),(deg),(min),(deg),(min),(miles),(meter),(deg),(m/s),(knots)
2004/6/23,9:25,,,36,47.736 ,137,4.140 ,,,,,
2004/6/23,9:30,0,5,36,47.742 ,137,4.194 ,0.05 ,100.62 ,83.7 ,0.34 ,0.65 
2004/6/23,9:35,0,5,36,47.736 ,137,4.248 ,0.05 ,100.62 ,96.3 ,0.34 ,0.65 
2004/6/23,9:40,0,5,36,47.748 ,137,4.302 ,0.06 ,102.45 ,77.5 ,0.34 ,0.66 
2004/6/23,9:45,0,5,36,47.754 ,137,4.338 ,0.04 ,67.59 ,80.5 ,0.23 ,0.44 
2004/6/23,9:50,0,5,36,47.772 ,137,4.380 ,0.05 ,84.63 ,66.8 ,0.28 ,0.55 
2004/6/23,9:55,0,5,36,47.784 ,137,4.410 ,0.03 ,59.84 ,68.2 ,0.20 ,0.39 
2004/6/23,10:00,0,5,36,47.802 ,137,4.458 ,0.05 ,94.94 ,69.4 ,0.32 ,0.62 
2004/6/23,10:05,0,5,36,47.814 ,137,4.488 ,0.03 ,59.84 ,68.2 ,0.20 ,0.39 
2004/6/23,10:10,0,5,36,47.808 ,137,4.500 ,0.01 ,24.85 ,116.6 ,0.08 ,0.16 
2004/6/23,10:15,0,5,36,47.820 ,137,4.542 ,0.04 ,80.90 ,74.1 ,0.27 ,0.52 
2004/6/23,10:20,0,5,36,47.820 ,137,4.560 ,0.02 ,33.34 ,90.0 ,0.11 ,0.22 
2004/6/23,10:25,0,5,36,47.832 ,137,4.590 ,0.03 ,59.84 ,68.2 ,0.20 ,0.39 
2004/6/23,10:30,0,5,36,47.838 ,137,4.608 ,0.02 ,35.14 ,71.6 ,0.12 ,0.23 
2004/6/23,10:35,0,5,36,47.862 ,137,4.656 ,0.05 ,99.39 ,63.4 ,0.33 ,0.64 
2004/6/23,10:40,0,5,36,47.868 ,137,4.686 ,0.03 ,56.66 ,78.7 ,0.19 ,0.37 
2004/6/23,10:45,0,5,36,47.880 ,137,4.710 ,0.03 ,49.69 ,63.4 ,0.17 ,0.32 
2004/6/23,10:50,0,5,36,47.874 ,137,4.722 ,0.01 ,24.85 ,116.6 ,0.08 ,0.16 
2004/6/23,10:55,0,5,36,47.892 ,137,4.740 ,0.03 ,47.14 ,45.0 ,0.16 ,0.31 
2004/6/23,11:00,0,5,36,47.898 ,137,4.782 ,0.04 ,78.57 ,81.9 ,0.26 ,0.51 
2004/6/23,11:05,0,5,36,47.910 ,137,4.812 ,0.03 ,59.84 ,68.2 ,0.20 ,0.39 
2004/6/23,11:10,0,5,36,47.922 ,137,4.842 ,0.03 ,59.84 ,68.2 ,0.20 ,0.39 
2004/6/23,11:15,0,5,36,47.898 ,137,4.866 ,0.03 ,62.86 ,135.0 ,0.21 ,0.41 
2004/6/23,11:20,0,5,36,47.910 ,137,4.884 ,0.02 ,40.06 ,56.3 ,0.13 ,0.26 
2004/6/23,11:25,0,5,36,47.904 ,137,4.902 ,0.02 ,35.14 ,108.4 ,0.12 ,0.23 
2004/6/23,11:30,0,5,36,47.892 ,137,4.914 ,0.02 ,31.43 ,135.0 ,0.10 ,0.20 
2004/6/23,11:35,0,5,36,47.892 ,137,4.926 ,0.01 ,22.22 ,90.0 ,0.07 ,0.14 
2004/6/23,11:40,0,5,36,47.886 ,137,4.932 ,0.01 ,15.71 ,135.0 ,0.05 ,0.10 
2004/6/23,11:45,0,5,36,47.886 ,137,4.944 ,0.01 ,22.22 ,90.0 ,0.07 ,0.14 
2004/6/23,11:50,0,5,36,47.886 ,137,4.950 ,0.01 ,11.11 ,90.0 ,0.04 ,0.07 
2004/6/23,11:55,0,5,36,47.886 ,137,4.956 ,0.01 ,11.11 ,90.0 ,0.04 ,0.07 
,,,,,,,,,,,,
,,,,,,,,,,,,
�D,Time,Time int.,,Lat.,,Long.,,Distance,,Direction,Speed,
Date(yy/mm/dd),(hh:mm),(hour),(min),(deg),(min),(deg),(min),(miles),(meter),(deg),(m/s),(knots)
2004/6/23,12:10,,,36,47.874 ,137,4.110 ,,,,,
2004/6/23,12:15,0,5,36,47.862 ,137,4.116 ,0.01 ,24.85 ,153.4 ,0.08 ,0.16 
2004/6/23,12:20,0,5,36,47.862 ,137,4.128 ,0.01 ,22.22 ,90.0 ,0.07 ,0.14 
2004/6/23,12:25,0,5,36,47.868 ,137,4.140 ,0.01 ,24.85 ,63.4 ,0.08 ,0.16 
2004/6/23,12:30,0,5,36,47.898 ,137,4.152 ,0.03 ,59.84 ,21.8 ,0.20 ,0.39 
2004/6/23,12:35,0,5,36,47.874 ,137,4.176 ,0.03 ,62.86 ,135.0 ,0.21 ,0.41 
2004/6/23,12:40,0,5,36,47.868 ,137,4.206 ,0.03 ,56.66 ,101.3 ,0.19 ,0.37 
2004/6/23,12:45,0,5,36,47.892 ,137,4.218 ,0.03 ,49.69 ,26.6 ,0.17 ,0.32 
2004/6/23,12:50,0,5,36,47.904 ,137,4.236 ,0.02 ,40.06 ,56.3 ,0.13 ,0.26 
2004/6/23,12:55,0,5,36,47.898 ,137,4.260 ,0.02 ,45.82 ,104.0 ,0.15 ,0.30 
2004/6/23,13:00,0,5,36,47.916 ,137,4.260 ,0.02 ,33.34 ,0.0 ,0.11 ,0.22 
2004/6/23,13:05,0,5,36,47.928 ,137,4.272 ,0.02 ,31.43 ,45.0 ,0.10 ,0.20 
2004/6/23,13:10,0,5,36,47.922 ,137,4.278 ,0.01 ,15.71 ,135.0 ,0.05 ,0.10 
2004/6/23,13:15,0,5,36,47.940 ,137,4.272 ,0.02 ,35.14 ,341.6 ,0.12 ,0.23 
2004/6/23,13:20,0,5,36,47.952 ,137,4.260 ,0.02 ,31.43 ,315.0 ,0.10 ,0.20 
2004/6/23,13:25,0,5,36,47.958 ,137,4.242 ,0.02 ,35.14 ,288.4 ,0.12 ,0.23 
2004/6/23,13:30,0,5,36,47.952 ,137,4.224 ,0.02 ,35.14 ,251.6 ,0.12 ,0.23 
2004/6/23,13:35,0,5,36,47.964 ,137,4.212 ,0.02 ,31.43 ,315.0 ,0.10 ,0.20 
2004/6/23,13:40,0,5,36,47.970 ,137,4.194 ,0.02 ,35.14 ,288.4 ,0.12 ,0.23 
2004/6/23,13:45,0,5,36,47.970 ,137,4.170 ,0.02 ,44.45 ,270.0 ,0.15 ,0.29 
2004/6/23,13:50,0,5,36,47.982 ,137,4.158 ,0.02 ,31.43 ,315.0 ,0.10 ,0.20 
2004/6/23,13:55,0,5,36,47.976 ,137,4.140 ,0.02 ,35.14 ,251.6 ,0.12 ,0.23 
2004/6/23,14:00,0,5,36,47.982 ,137,4.104 ,0.04 ,67.59 ,279.5 ,0.23 ,0.44 
,,,,,,,,,,,,
,,,,,,,,,,,,
�E,Time,Time int.,,Lat.,,Long.,,Distance,,Direction,Speed,
Date(yy/mm/dd),(hh:mm),(hour),(min),(deg),(min),(deg),(min),(miles),(meter),(deg),(m/s),(knots)
2004/6/23,14:05,,,36,47.784 ,137,4.230 ,,,,,
2004/6/23,14:10,0,5,36,47.784 ,137,4.260 ,0.03 ,55.56 ,90.0 ,0.19 ,0.36 
2004/6/23,14:15,0,5,36,47.778 ,137,4.266 ,0.01 ,15.71 ,135.0 ,0.05 ,0.10 
2004/6/23,14:20,0,5,36,47.796 ,137,4.272 ,0.02 ,35.14 ,18.4 ,0.12 ,0.23 
2004/6/23,14:25,0,5,36,47.796 ,137,4.284 ,0.01 ,22.22 ,90.0 ,0.07 ,0.14 
2004/6/23,14:30,0,5,36,47.802 ,137,4.302 ,0.02 ,35.14 ,71.6 ,0.12 ,0.23 
2004/6/23,14:35,0,5,36,47.808 ,137,4.302 ,0.01 ,11.11 ,0.0 ,0.04 ,0.07 
2004/6/23,14:40,0,5,36,47.808 ,137,4.314 ,0.01 ,22.22 ,90.0 ,0.07 ,0.14 
2004/6/23,14:45,0,5,36,47.820 ,137,4.314 ,0.01 ,22.22 ,0.0 ,0.07 ,0.14 
2004/6/23,14:50,0,5,36,47.820 ,137,4.320 ,0.01 ,11.11 ,90.0 ,0.04 ,0.07 
2004/6/23,14:55,0,5,36,47.820 ,137,4.326 ,0.01 ,11.11 ,90.0 ,0.04 ,0.07 
2004/6/23,15:00,0,5,36,47.838 ,137,4.332 ,0.02 ,35.14 ,18.4 ,0.12 ,0.23 
